RYR269 EDDH-EDDS

Flight info

Callsign RYR269
Flight time 1h 3m
Altitude 35000
Route IDEKO7G/33 IDEKO N850 NIE DCT BERXO DCT SILWE DCT OSBIT P605 TOSTU T726 LBU
Aircraft B738/M-SDE2E3FGHIRWXY/LB1

Departure

Time 2026-05-06 19:43
Airport Hamburg Helmut Schmidt Airport (EDDH)

Arrival

Time 2026-05-06 20:46
Airport Stuttgart Airport (EDDS)
Time Latitude Longitude Altitude Speed Heading
2026-05-06 19:30 53.62682 10.00212 47 ft 1 kts 333°
2026-05-06 19:33 53.62683 10.00210 47 ft 1 kts 333°
2026-05-06 19:34 53.62710 10.00188 45 ft 8 kts 333°
2026-05-06 19:34 53.62748 10.00155 44 ft 4 kts 334°
2026-05-06 19:34 53.62773 10.00134 45 ft 4 kts 333°
2026-05-06 19:34 53.62821 10.00093 47 ft 11 kts 333°
2026-05-06 19:35 53.62840 10.00067 47 ft 1 kts 310°
2026-05-06 19:35 53.62841 10.00066 47 ft 0 kts 310°
2026-05-06 19:36 53.62843 10.00061 47 ft 2 kts 309°
2026-05-06 19:36 53.62855 10.00002 47 ft 8 kts 265°
2026-05-06 19:36 53.62845 9.99961 47 ft 0 kts 243°
2026-05-06 19:38 53.62844 9.99959 47 ft 1 kts 243°
2026-05-06 19:38 53.62832 9.99920 44 ft 7 kts 243°
2026-05-06 19:38 53.62818 9.99797 44 ft 12 kts 300°
2026-05-06 19:38 53.62841 9.99769 44 ft 0 kts 332°
2026-05-06 19:42 53.62842 9.99768 44 ft 4 kts 332°
2026-05-06 19:42 53.63031 9.99601 43 ft 65 kts 333°
2026-05-06 19:43 53.63631 9.99080 47 ft 126 kts 332°
2026-05-06 19:43 53.64533 9.98235 159 ft 165 kts 331°
2026-05-06 19:43 53.65561 9.97173 682 ft 181 kts 329°
2026-05-06 19:43 53.66670 9.96115 1456 ft 184 kts 338°
2026-05-06 19:44 53.67879 9.95180 1945 ft 203 kts 340°
2026-05-06 19:44 53.69198 9.94148 2393 ft 213 kts 338°
2026-05-06 19:44 53.70548 9.93037 2935 ft 219 kts 332°
2026-05-06 19:44 53.71513 9.91029 3451 ft 233 kts 291°
2026-05-06 19:45 53.71510 9.88211 3743 ft 252 kts 251°
2026-05-06 19:45 53.70826 9.85389 4051 ft 270 kts 249°
2026-05-06 19:45 53.70151 9.82393 4613 ft 280 kts 250°
2026-05-06 19:45 53.69503 9.79313 5522 ft 278 kts 251°
2026-05-06 19:46 53.68872 9.76213 6362 ft 280 kts 252°
2026-05-06 19:46 53.68250 9.73093 7139 ft 282 kts 253°
2026-05-06 19:46 53.67623 9.69915 7797 ft 288 kts 252°
2026-05-06 19:46 53.66994 9.66723 8685 ft 286 kts 252°
2026-05-06 19:47 53.66360 9.63516 9426 ft 288 kts 252°
2026-05-06 19:47 53.65588 9.60373 9861 ft 295 kts 237°
2026-05-06 19:47 53.64097 9.58133 9861 ft 285 kts 205°
2026-05-06 19:47 53.62212 9.57200 9919 ft 288 kts 188°
2026-05-06 19:48 53.60164 9.56770 10153 ft 308 kts 185°
2026-05-06 19:48 53.57947 9.56377 10348 ft 330 kts 185°
2026-05-06 19:48 53.55591 9.55959 10593 ft 349 kts 185°
2026-05-06 19:48 53.53154 9.55514 11198 ft 354 kts 186°
2026-05-06 19:49 53.50697 9.55050 11932 ft 357 kts 186°
2026-05-06 19:49 53.48222 9.54572 12570 ft 357 kts 187°
2026-05-06 19:49 53.45751 9.54089 12888 ft 362 kts 187°
2026-05-06 19:49 53.43229 9.53595 13525 ft 367 kts 187°
2026-05-06 19:50 53.40680 9.53094 14237 ft 368 kts 187°
2026-05-06 19:50 53.38164 9.52600 14960 ft 369 kts 187°
2026-05-06 19:50 53.35603 9.52097 15651 ft 372 kts 187°
2026-05-06 19:50 53.33035 9.51594 16448 ft 372 kts 188°
2026-05-06 19:51 53.30575 9.51206 17963 ft 343 kts 186°
2026-05-06 19:51 53.28217 9.50793 18790 ft 343 kts 188°
2026-05-06 19:51 53.25785 9.50282 18946 ft 361 kts 189°
2026-05-06 19:51 53.23237 9.49731 19078 ft 378 kts 189°
2026-05-06 19:52 53.20576 9.49169 19338 ft 390 kts 188°
2026-05-06 19:52 53.17865 9.48615 19820 ft 395 kts 188°
2026-05-06 19:52 53.15124 9.48069 20396 ft 397 kts 188°
2026-05-06 19:52 53.12372 9.47529 20951 ft 400 kts 188°
2026-05-06 19:53 53.09596 9.46986 21461 ft 404 kts 188°
2026-05-06 19:53 53.06782 9.46438 21953 ft 408 kts 188°
2026-05-06 19:53 53.03952 9.45886 22453 ft 411 kts 188°
2026-05-06 19:53 53.01098 9.45330 22943 ft 415 kts 188°
2026-05-06 19:54 52.98219 9.44764 23427 ft 418 kts 188°
2026-05-06 19:54 52.95317 9.44158 23831 ft 421 kts 188°
2026-05-06 19:54 52.92401 9.43531 24266 ft 423 kts 188°
2026-05-06 19:54 52.89472 9.42897 24702 ft 425 kts 188°
2026-05-06 19:55 52.86540 9.42266 25106 ft 427 kts 189°
2026-05-06 19:55 52.83586 9.41634 25525 ft 428 kts 188°
2026-05-06 19:55 52.80619 9.41003 25915 ft 431 kts 189°
2026-05-06 19:55 52.77673 9.40379 26281 ft 433 kts 189°
2026-05-06 19:56 52.74677 9.39745 26663 ft 435 kts 188°
2026-05-06 19:56 52.71661 9.39109 27042 ft 437 kts 188°
2026-05-06 19:56 52.68639 9.38471 27401 ft 439 kts 188°
2026-05-06 19:56 52.65600 9.37834 27720 ft 442 kts 187°
2026-05-06 19:57 52.62513 9.37607 28045 ft 445 kts 179°
2026-05-06 19:57 52.59429 9.38195 28413 ft 449 kts 170°
2026-05-06 19:57 52.56379 9.39334 28771 ft 450 kts 168°
2026-05-06 19:57 52.53318 9.40531 29075 ft 453 kts 168°
2026-05-06 19:58 52.51285 9.41330 29308 ft 453 kts 168°
2026-05-06 19:58 52.47189 9.42923 29973 ft 450 kts 168°
2026-05-06 19:58 52.44156 9.44083 30414 ft 447 kts 168°
2026-05-06 19:58 52.41158 9.45215 30780 ft 446 kts 168°
2026-05-06 19:59 52.38131 9.46346 31101 ft 446 kts 169°
2026-05-06 19:59 52.35118 9.47467 31512 ft 444 kts 169°
2026-05-06 19:59 52.32115 9.48580 31932 ft 441 kts 169°
2026-05-06 19:59 52.29121 9.49687 32319 ft 440 kts 169°
2026-05-06 20:00 52.27145 9.50417 32543 ft 439 kts 169°
2026-05-06 20:00 52.24171 9.51516 32908 ft 437 kts 169°
2026-05-06 20:00 52.21204 9.52610 33269 ft 436 kts 170°
2026-05-06 20:00 52.18243 9.53700 33609 ft 435 kts 170°
2026-05-06 20:01 52.15294 9.54785 33960 ft 434 kts 170°
2026-05-06 20:01 52.12351 9.55867 34226 ft 433 kts 170°
2026-05-06 20:01 52.09416 9.56943 34523 ft 432 kts 170°
2026-05-06 20:01 52.06482 9.58019 34729 ft 432 kts 170°
2026-05-06 20:02 52.03537 9.59096 34838 ft 435 kts 170°
2026-05-06 20:02 52.00572 9.60178 34837 ft 438 kts 170°
2026-05-06 20:02 51.94626 9.62347 34834 ft 437 kts 170°
2026-05-06 20:03 51.88746 9.64489 34832 ft 431 kts 170°
2026-05-06 20:03 51.82900 9.66610 34841 ft 430 kts 170°
2026-05-06 20:04 51.77067 9.68720 34839 ft 429 kts 170°
2026-05-06 20:04 51.71238 9.70823 34843 ft 429 kts 170°
2026-05-06 20:05 51.65453 9.72905 34819 ft 429 kts 170°
2026-05-06 20:05 51.59628 9.74996 34826 ft 429 kts 170°
2026-05-06 20:06 51.53792 9.77086 34828 ft 430 kts 170°
2026-05-06 20:06 51.47952 9.79171 34832 ft 431 kts 170°
2026-05-06 20:07 51.42082 9.81262 34832 ft 431 kts 170°
2026-05-06 20:07 51.36219 9.83346 34822 ft 431 kts 171°
2026-05-06 20:08 51.30354 9.85425 34813 ft 431 kts 171°
2026-05-06 20:08 51.24500 9.87486 34818 ft 430 kts 172°
2026-05-06 20:09 51.18602 9.88004 34831 ft 423 kts 186°
2026-05-06 20:09 51.12771 9.87416 34822 ft 422 kts 186°
2026-05-06 20:10 51.06914 9.86848 34815 ft 421 kts 185°
2026-05-06 20:10 51.01064 9.86320 34821 ft 419 kts 185°
2026-05-06 20:11 50.95250 9.85812 34814 ft 418 kts 185°
2026-05-06 20:11 50.89435 9.85308 34809 ft 417 kts 185°
2026-05-06 20:12 50.83637 9.84806 34807 ft 417 kts 185°
2026-05-06 20:12 50.77850 9.84305 34812 ft 416 kts 185°
2026-05-06 20:13 50.72107 9.83810 34814 ft 416 kts 185°
2026-05-06 20:13 50.66332 9.83313 34815 ft 416 kts 185°
2026-05-06 20:14 50.60555 9.82817 34801 ft 415 kts 185°
2026-05-06 20:14 50.54791 9.82323 34813 ft 414 kts 185°
2026-05-06 20:15 50.49035 9.81831 34814 ft 413 kts 185°
2026-05-06 20:15 50.43277 9.81339 34485 ft 418 kts 185°
2026-05-06 20:16 50.40374 9.81092 33991 ft 417 kts 185°
2026-05-06 20:16 50.37483 9.80847 33470 ft 413 kts 185°
2026-05-06 20:16 50.34630 9.80605 32982 ft 408 kts 184°
2026-05-06 20:16 50.31817 9.80368 32566 ft 402 kts 184°
2026-05-06 20:17 50.29039 9.80135 32123 ft 397 kts 184°
2026-05-06 20:17 50.26291 9.79906 31681 ft 393 kts 184°
2026-05-06 20:17 50.23572 9.79679 31243 ft 389 kts 184°
2026-05-06 20:17 50.20879 9.79454 30817 ft 386 kts 183°
2026-05-06 20:18 50.18209 9.79231 30398 ft 382 kts 183°
2026-05-06 20:18 50.15567 9.79011 29987 ft 379 kts 182°
2026-05-06 20:18 50.12973 9.78796 29526 ft 376 kts 182°
2026-05-06 20:18 50.10369 9.78580 29093 ft 372 kts 182°
2026-05-06 20:19 50.07769 9.78364 28666 ft 368 kts 182°
2026-05-06 20:19 50.05256 9.78337 28257 ft 364 kts 178°
2026-05-06 20:19 50.02741 9.78491 27835 ft 360 kts 178°
2026-05-06 20:19 50.00246 9.78677 27436 ft 357 kts 177°
2026-05-06 20:20 49.97777 9.78862 27030 ft 354 kts 177°
2026-05-06 20:20 49.95318 9.79039 26624 ft 353 kts 177°
2026-05-06 20:20 49.92872 9.79208 26216 ft 351 kts 177°
2026-05-06 20:20 49.90430 9.79372 25832 ft 354 kts 178°
2026-05-06 20:21 49.87932 9.79535 25445 ft 365 kts 178°
2026-05-06 20:21 49.85370 9.79701 25024 ft 368 kts 178°
2026-05-06 20:21 49.82814 9.79866 24600 ft 366 kts 178°
2026-05-06 20:21 49.80282 9.80029 24189 ft 364 kts 178°
2026-05-06 20:22 49.77753 9.80192 23790 ft 361 kts 178°
2026-05-06 20:22 49.75279 9.80351 23378 ft 359 kts 178°
2026-05-06 20:22 49.72783 9.80511 22912 ft 357 kts 178°
2026-05-06 20:22 49.70313 9.80662 22496 ft 354 kts 178°
2026-05-06 20:23 49.67870 9.80779 22097 ft 350 kts 179°
2026-05-06 20:23 49.65441 9.80887 21701 ft 347 kts 179°
2026-05-06 20:23 49.63026 9.80997 21302 ft 345 kts 179°
2026-05-06 20:23 49.60640 9.81141 20916 ft 342 kts 175°
2026-05-06 20:24 49.58290 9.81647 20535 ft 340 kts 171°
2026-05-06 20:24 49.55970 9.82301 20148 ft 338 kts 170°
2026-05-06 20:24 49.53667 9.82978 19780 ft 335 kts 169°
2026-05-06 20:24 49.51383 9.83645 19401 ft 333 kts 170°
2026-05-06 20:25 49.49090 9.83989 19129 ft 330 kts 182°
2026-05-06 20:25 49.46812 9.83559 18903 ft 332 kts 189°
2026-05-06 20:25 49.44523 9.82924 18674 ft 338 kts 190°
2026-05-06 20:25 49.42195 9.82269 18437 ft 340 kts 190°
2026-05-06 20:26 49.39874 9.81620 18197 ft 338 kts 190°
2026-05-06 20:26 49.37596 9.80990 17927 ft 335 kts 190°
2026-05-06 20:26 49.35302 9.80361 17665 ft 334 kts 190°
2026-05-06 20:26 49.33015 9.79738 17396 ft 332 kts 190°
2026-05-06 20:27 49.30748 9.79125 17123 ft 328 kts 190°
2026-05-06 20:27 49.28543 9.78531 16834 ft 314 kts 190°
2026-05-06 20:27 49.26433 9.77963 16561 ft 302 kts 190°
2026-05-06 20:27 49.24397 9.77416 16288 ft 292 kts 190°
2026-05-06 20:28 49.22421 9.76886 16023 ft 285 kts 190°
2026-05-06 20:28 49.20463 9.76684 15766 ft 284 kts 172°
2026-05-06 20:28 49.18520 9.77394 15564 ft 290 kts 165°
2026-05-06 20:28 49.16595 9.78309 15386 ft 288 kts 164°
2026-05-06 20:29 49.14703 9.79275 15128 ft 286 kts 164°
2026-05-06 20:29 49.12792 9.80123 14721 ft 286 kts 175°
2026-05-06 20:29 49.10778 9.79933 13789 ft 301 kts 197°
2026-05-06 20:29 49.08758 9.78874 12832 ft 318 kts 202°
2026-05-06 20:30 49.06688 9.77632 12246 ft 321 kts 203°
2026-05-06 20:30 49.02577 9.75106 11426 ft 316 kts 204°
2026-05-06 20:30 49.00544 9.73848 10999 ft 315 kts 204°
2026-05-06 20:31 48.98521 9.72592 10588 ft 314 kts 204°
2026-05-06 20:31 48.96498 9.71335 10157 ft 313 kts 204°
2026-05-06 20:31 48.94485 9.70096 9710 ft 312 kts 203°
2026-05-06 20:31 48.92478 9.68852 9324 ft 306 kts 204°
2026-05-06 20:32 48.90569 9.67668 9196 ft 287 kts 204°
2026-05-06 20:32 48.88770 9.66557 9055 ft 271 kts 204°
2026-05-06 20:32 48.87071 9.65514 8927 ft 255 kts 204°
2026-05-06 20:32 48.85457 9.64675 8808 ft 243 kts 189°
2026-05-06 20:33 48.83820 9.64955 8629 ft 238 kts 159°
2026-05-06 20:33 48.82478 9.66452 8348 ft 242 kts 137°
2026-05-06 20:33 48.81185 9.68018 8068 ft 236 kts 161°
2026-05-06 20:33 48.79605 9.68374 7797 ft 228 kts 187°
2026-05-06 20:34 48.78028 9.68551 7508 ft 234 kts 163°
2026-05-06 20:34 48.76648 9.69966 7026 ft 250 kts 131°
2026-05-06 20:34 48.75780 9.72311 6571 ft 263 kts 115°
2026-05-06 20:34 48.75047 9.74950 6099 ft 280 kts 114°
2026-05-06 20:35 48.74288 9.77730 5598 ft 289 kts 114°
2026-05-06 20:35 48.73515 9.80573 5088 ft 295 kts 114°
2026-05-06 20:35 48.72842 9.83538 4585 ft 301 kts 111°
2026-05-06 20:35 48.71883 9.86371 4052 ft 303 kts 130°
2026-05-06 20:36 48.70325 9.88422 3623 ft 294 kts 157°
2026-05-06 20:36 48.68462 9.89135 3713 ft 264 kts 185°
2026-05-06 20:36 48.66794 9.88517 3762 ft 237 kts 214°
2026-05-06 20:36 48.65718 9.86879 3770 ft 210 kts 246°
2026-05-06 20:37 48.65494 9.84754 3779 ft 207 kts 279°
2026-05-06 20:37 48.66152 9.82864 3938 ft 208 kts 311°
2026-05-06 20:37 48.67102 9.81218 4243 ft 208 kts 302°
2026-05-06 20:37 48.67965 9.79431 4601 ft 212 kts 303°
2026-05-06 20:38 48.68837 9.77646 4883 ft 211 kts 303°
2026-05-06 20:38 48.69720 9.75846 4989 ft 216 kts 304°
2026-05-06 20:38 48.70619 9.74011 4975 ft 216 kts 304°
2026-05-06 20:38 48.71510 9.72191 4966 ft 214 kts 304°
2026-05-06 20:39 48.72379 9.70416 4976 ft 212 kts 304°
2026-05-06 20:39 48.73254 9.68625 4978 ft 210 kts 304°
2026-05-06 20:39 48.74121 9.66851 4978 ft 207 kts 304°
2026-05-06 20:39 48.74954 9.65149 4960 ft 198 kts 304°
2026-05-06 20:40 48.75634 9.63404 4919 ft 188 kts 281°
2026-05-06 20:40 48.75560 9.61493 4943 ft 183 kts 255°
2026-05-06 20:40 48.75217 9.59613 4956 ft 188 kts 256°
2026-05-06 20:40 48.74869 9.57657 4831 ft 195 kts 256°
2026-05-06 20:41 48.74513 9.55679 4708 ft 194 kts 256°
2026-05-06 20:41 48.74164 9.53753 4610 ft 186 kts 256°
2026-05-06 20:41 48.73845 9.51912 4480 ft 175 kts 258°
2026-05-06 20:41 48.73589 9.50146 4359 ft 170 kts 258°
2026-05-06 20:42 48.73368 9.48374 4217 ft 173 kts 262°
2026-05-06 20:42 48.73187 9.46562 4115 ft 176 kts 262°
2026-05-06 20:42 48.73006 9.44741 4014 ft 173 kts 262°
2026-05-06 20:42 48.72819 9.42904 3695 ft 179 kts 260°
2026-05-06 20:43 48.72561 9.41094 3491 ft 174 kts 256°
2026-05-06 20:43 48.72246 9.39344 3263 ft 170 kts 254°
2026-05-06 20:43 48.71929 9.37672 3011 ft 160 kts 254°
2026-05-06 20:43 48.71636 9.36134 2831 ft 148 kts 253°
2026-05-06 20:44 48.71442 9.35119 2702 ft 151 kts 253°
2026-05-06 20:44 48.71066 9.33141 2431 ft 144 kts 253°
2026-05-06 20:44 48.70794 9.31713 2233 ft 141 kts 253°
2026-05-06 20:44 48.70515 9.30249 2022 ft 149 kts 253°
2026-05-06 20:45 48.70229 9.28737 1811 ft 149 kts 253°
2026-05-06 20:45 48.70036 9.27727 1671 ft 148 kts 253°
2026-05-06 20:45 48.69747 9.26237 1465 ft 145 kts 252°
2026-05-06 20:45 48.69469 9.24759 1280 ft 147 kts 253°
2026-05-06 20:46 48.69195 9.23315 1211 ft 138 kts 253°
2026-05-06 20:46 48.68984 9.22198 1232 ft 86 kts 254°
2026-05-06 20:46 48.68845 9.21453 1265 ft 64 kts 254°
2026-05-06 20:46 48.68737 9.20882 1267 ft 39 kts 254°
2026-05-06 20:47 48.68684 9.20566 1271 ft 28 kts 262°
2026-05-06 20:47 48.68686 9.20278 1277 ft 27 kts 283°
2026-05-06 20:47 48.68725 9.20078 1287 ft 13 kts 296°
2026-05-06 20:47 48.68779 9.19973 1293 ft 11 kts 313°
2026-05-06 20:48 48.68832 9.19902 1297 ft 10 kts 330°
2026-05-06 20:48 48.68892 9.19859 1302 ft 9 kts 315°
2026-05-06 20:48 48.68890 9.19813 1303 ft 4 kts 249°
2026-05-06 20:48 48.68879 9.19763 1305 ft 7 kts 253°
2026-05-06 20:49 48.68860 9.19665 1307 ft 12 kts 254°
2026-05-06 20:49 48.68833 9.19602 1308 ft 7 kts 180°
2026-05-06 20:49 48.68787 9.19617 1305 ft 1 kts 164°
2026-05-06 20:49 48.68783 9.19619 1304 ft 0 kts 164°